Regional Weather Roundup
Issued by NWS Grand Forks, ND

Home | Current Version | Previous Version | Text Only | Print | Product List | Glossary Off
Versions: 1 2 3 4 5 6 7 8 9 10 11 12 13 14 15 16 17 18 19 20 21 22 23 24 25 26 27 28 29 30 31 32 33 34 35 36 37 38 39 40 41 42 43 44 45 46 47 48 49 50

000
ASUS43 KFGF 180010
RWRFGF
PRAIRIE TO PINES  WEATHER ROUNDUP
NATIONAL WEATHER SERVICE EASTERN NORTH DAKOTA/GRAND FORKS ND
700 PM CDT THU AUG 17 2017

 **SATELLITE DATA USED TO AUGMENT SKY COVER AT AUTOMATED STATIONS**
 *****  WEATHER ACROSS EASTERN NORTH DAKOTA  *****

CITY           SKY/WX    TMP DP  RH WIND       PRES   REMARKS
GRAND FORKS    FAIR      80  61  52 NE5       29.82S
6HR MIN TEMP:  73; 6HR MAX TEMP:  81;

GRAND FRKS AFB MOSUNNY   81  61  50 N3        29.88R
DEVILS LAKE    FAIR      77  54  44 CALM      29.87S
6HR MIN TEMP:  74; 6HR MAX TEMP:  78;

FARGO          FAIR      77  60  55 N8        29.84S
WAHPETON ARPT  FAIR      73  57  56 NW8       29.85S
$$

 ***** WEATHER ACROSS CENTRAL AND WESTERN NORTH DAKOTA  *****

CITY           SKY/WX    TMP DP  RH WIND       PRES   REMARKS
BISMARCK       FAIR      77  61  57 S7        29.83F
6HR MIN TEMP:  77; 6HR MAX TEMP:  84;

MINOT          FAIR      81  52  36 E10       29.81R
6HR MIN TEMP:  80; 6HR MAX TEMP:  85;

JAMESTOWN      FAIR      76  61  59 SE3       29.86S
6HR MIN TEMP:  75; 6HR MAX TEMP:  81;

MINOT AFB      FAIR      79  52  39 E9        29.80R
GARRISON         N/A     76  63  64 SE8       29.80S
WILLISTON      FAIR      80  51  36 NW14      29.85R
6HR MIN TEMP:  77; 6HR MAX TEMP:  87;

DICKINSON        N/A     77  47  34 W15       29.87R
6HR MIN TEMP:  77; 6HR MAX TEMP:  87;

HETTINGER      FAIR      82  49  31 SW5       29.90S
6HR MIN TEMP:  78; 6HR MAX TEMP:  86;

$$

 *****  OTHER AIRPORT OBSERVATIONS IN OUR AREA  *****

CITY           SKY/WX    TMP DP  RH WIND       PRES   REMARKS
WALHALLA       FAIR      79  79 100 N9        29.82F
GRAFTON AIRPOR FAIR      75  63  64 CALM      29.84S
VALLEY CITY AR   N/A     79  57  47 CALM      29.88S
CANDO          FAIR      77  57  50 S6        29.88S
CAVALIER APRT  FAIR      77  55  47 N5        29.82S
GWINNER        CLEAR     75  64  69 CALM      29.86S
SHEYENNE NWR     N/A     79  59  50 N2        29.95S
ROLLA          FAIR      77  57  50 N5        29.88S
 ***** THE ABOVE OBSERVATIONS ARE NON NWS ARE NOT QUALITY
       CONTROLLED AND MAY MIS-REPORT RAIN FOR SNOW...
$$

  *****  WEATHER ACROSS NORTHERN MINNESOTA  *****

CITY           SKY/WX    TMP DP  RH WIND       PRES   REMARKS
FLAG ISLAND    FAIR      75  54  46 N3        29.80S
WARROAD        FAIR      75  64  69 E3        29.82S
ROSEAU         FAIR      77  61  57 NW6       29.82S
HALLOCK        FAIR      81  55  41 NW7       29.81S
THF RVR FALLS  FAIR      76  56  49 NW10      29.85R
6HR MIN TEMP:  73; 6HR MAX TEMP:  79;

BAUDETTE       FAIR      72  58  61 NW6       29.81S
6HR MIN TEMP:  68; 6HR MAX TEMP:  75;

WASKISH        FAIR      72  57  60 N3        29.82S
CROOKSTON      FAIR      77  57  50 N7        29.84S
STEPHEN NDAWN    N/A     79  57  47 N3          N/A
GREENBUSH NDAW   N/A     75  61  60 NW2         N/A
$$
  *****  WEATHER ACROSS CENTRAL AND WEST MINNESOTA  *****

CITY           SKY/WX    TMP DP  RH WIND       PRES   REMARKS
FOSSTON        FAIR      75  57  53 N6        29.85R
BEMIDJI        FAIR      71  57  62 NW8       29.84S
PARK RAPIDS    FAIR      73  57  57 N10       29.84R
6HR MIN TEMP:  65; 6HR MAX TEMP:  76;

ELBOW LAKE     FAIR      73  62  69 W8        29.86S HAZE
WADENA         FAIR      72  57  60 N6        29.84S
DETROIT LAKES  FAIR      73  59  60 NW7       29.87R
MOORHEAD       FAIR      75  61  60 N7        29.85S
FERGUS FALLS   FAIR      73  61  64 NW9       29.84S
MORRIS MN      FAIR      73  63  68 NW12      29.85R
STAPLES        FAIR      72  57  60 N5        29.83S
$$
  *****  WEATHER ELSEWHERE ACROSS MINNESOTA  *****

CITY           SKY/WX    TMP DP  RH WIND       PRES   REMARKS
DULUTH         DRIZZLE   61  61 100 N16G25    29.75R
6HR MIN TEMP:  61; 6HR MAX TEMP:  62; 6HR PCP:  0.05;

INTRNTL FALLS  FAIR      69  59  70 NW5       29.80F
6HR MIN TEMP:  62; 6HR MAX TEMP:  69;

ELY            CLOUDY    61  59  94 NW8       29.76R
CLOQUET        CLOUDY    63  57  82 NW12G20   29.78R
WHEATON        FAIR      73  59  60 NW5       29.87S
BRAINERD       FAIR      69  59  70 NW12      29.82S
6HR MIN TEMP:  64; 6HR MAX TEMP:  71;

HIBBING        CLOUDY    62  58  86 NW13G22   29.80R
6HR MIN TEMP:  60; 6HR MAX TEMP:  63; 6HR PCP:  0.01;

ALEXANDRIA     FAIR      73  60  63 NW7       29.86S
6HR MIN TEMP:  66; 6HR MAX TEMP:  75;

SAINT CLOUD    FAIR      71  61  70 N9        29.81R
6HR MIN TEMP:  68; 6HR MAX TEMP:  72;

MINNEAPOLIS    PTSUNNY   72  61  68 NW20G25   29.78R
6HR MIN TEMP:  65; 6HR MAX TEMP:  74;

$$

  *****  WEATHER ACROSS SOUTH DAKOTA  *****

CITY           SKY/WX    TMP DP  RH WIND       PRES   REMARKS
SIOUX FALLS    FAIR      78  60  53 N7        29.89F
6HR MIN TEMP:  76; 6HR MAX TEMP:  80;

BROOKINGS      FAIR      74  61  63 NW3       29.90S
WATERTOWN      FAIR      75  57  53 NW3       29.88S
6HR MIN TEMP:  74; 6HR MAX TEMP:  77;

HURON          FAIR      77  61  57 E7        29.86F
6HR MIN TEMP:  77; 6HR MAX TEMP:  82;

SISSETON         N/A     76  65  68 N5        29.85S
ABERDEEN       FAIR      77  60  55 E7        29.87S
6HR MIN TEMP:  76; 6HR MAX TEMP:  81;

MITCHELL       FAIR      78  62  57 E5        29.88S
PIERRE         TSTM      73  61  65 SE26      29.77F
6HR MIN TEMP:  73; 6HR MAX TEMP:  88; 6HR PCP:  0.05;

MOBRIDGE       NOT AVBL
RAPID CITY     CLOUDY    76  46  34 NW17      30.00R
6HR MIN TEMP:  76; 6HR MAX TEMP:  89; 6HR PCP: TRACE;

$$

  *****  SOME WEATHER IN NEARBY STATES *****

CITY           SKY/WX    TMP DP  RH WIND       PRES   REMARKS
GLASGOW MT     FAIR      84  37  18 NW14      29.89F
6HR MIN TEMP:  75; 6HR MAX TEMP:  87; 6HR PCP: TRACE;

GREAT FALLS MT FAIR      82  35  18 CALM      30.01F
6HR MIN TEMP:  77; 6HR MAX TEMP:  84;

CHEYENNE WY    FAIR      77  32  19 NW12G22   30.14S
6HR MIN TEMP:  71; 6HR MAX TEMP:  82; 6HR PCP: TRACE;

SCOTTSBLUFF NE FAIR      89  41  18 CALM      29.95F
6HR MIN TEMP:  81; 6HR MAX TEMP:  91;

OMAHA NE       FAIR      82  59  45 NW7       29.91S
6HR MIN TEMP:  80; 6HR MAX TEMP:  84;

DES MOINES IA  FAIR      81  59  47 NW17      29.86R
6HR MIN TEMP:  78; 6HR MAX TEMP:  84;

DAVENPORT IA   CLOUDY    76  64  66 W15G22    29.82R
6HR MIN TEMP:  76; 6HR MAX TEMP:  81;

CHICAGO IL     MOCLDY    80  64  58 W12       29.72S
6HR MIN TEMP:  79; 6HR MAX TEMP:  82;

EAU CLAIRE WI  CLOUDY    66  60  81 NW13      29.73R
6HR MIN TEMP:  65; 6HR MAX TEMP:  73; 6HR PCP:  0.04;

LA CROSSE WI   CLOUDY    73  63  70 NW15      29.73R
6HR MIN TEMP:  72; 6HR MAX TEMP:  78; 6HR PCP: TRACE;

$$

  *****  SOME NATIONAL WEATHER *****

CITY           SKY/WX    TMP DP  RH WIND       PRES   REMARKS
LA GUARDIA NY  MOCLDY    76  68  76 S10       29.97S
6HR MIN TEMP:  76; 6HR MAX TEMP:  82;

RALEIGH NC     MOCLDY    81  74  79 S7        29.99R
6HR MIN TEMP:  81; 6HR MAX TEMP:  94; 6HR PCP:  0.24;

ATLANTA GA     FAIR      85  69  58 W13       30.02R
6HR MIN TEMP:  85; 6HR MAX TEMP:  90;

NEW ORLEANS LA LGT RAIN  83  78  85 S12       30.00S HX  93
6HR MIN TEMP:  82; 6HR MAX TEMP:  94; 6HR PCP: TRACE;

OKLAHOMA CITY  FAIR      87  66  49 S7        29.97S
6HR MIN TEMP:  85; 6HR MAX TEMP:  91;

ALBUQUERQUE NM FAIR      87  31  13 VRB6      30.13F
6HR MIN TEMP:  82; 6HR MAX TEMP:  90;

SALT LAKE CITY FAIR      90  39  16 N9        30.07F
6HR MIN TEMP:  85; 6HR MAX TEMP:  92;

LOS ANGELES CA FAIR      72  63  73 W15       29.96F
6HR MIN TEMP:  72; 6HR MAX TEMP:  75;

BOISE ID       FAIR



USA.gov is the U.S. government's official web portal to all federal, state and local government web resources and services.